Regional Weather Roundup
Issued by NWS Portland, ME

Home | Current Version | Previous Version | Text Only | Print | Product List | Glossary On
Versions: 1 2 3 4 5 6 7 8 9 10 11 12 13 14 15 16 17 18 19 20 21 22 23 24 25 26 27 28 29 30 31 32 33 34 35 36 37 38 39 40 41 42 43 44 45 46 47 48 49 50
000
ASUS41 KGYX 190510
RWRGYX
WEATHER ROUNDUP FOR MAINE AND NEW HAMPSHIRE
NATIONAL WEATHER SERVICE GRAY ME
100 AM EDT SUN APR 19 2015

MEZ002-005-006-010-012-015-018-020-021-024-026-027-029-190600-
MAINE

CITY           SKY/WX    TMP DP  RH WIND       PRES   REMARKS
PORTLAND       CLEAR     42  36  79 N8        30.09R
SANFORD        CLEAR     32  27  80 CALM      30.09R
BAR HARBOR     CLOUDY    39  37  93 CALM      30.04R
WISCASSET      MOCLDY    41  38  89 CALM      30.09R
ROCKLAND       CLOUDY    37  36  93 NW5       30.05R
FRYEBURG       CLEAR     33  31  92 CALM      30.10R
LEWISTONAUBURN PTCLDY    43  32  65 NW13      30.08R
AUGUSTA        CLOUDY    40  37  89 NW12      30.07R
WATERVILLE     CLOUDY    41  36  81 NW12      30.05R
BANGOR         CLOUDY    40  38  93 VRB7      30.04R
GREENVILLE       N/A     34  30  85 N13       30.03R
MILLINOCKET    CLOUDY    43  29  57 N6        30.06R
HOULTON        CLOUDY    37  25  61 N8        30.05R
PRESQUE ISLE   CLOUDY    39  19  45 NW6       30.06R
FRENCHVILLE    CLOUDY    34  16  47 NW6       30.04R
CARIBOU        CLOUDY    36  21  54 NW5       30.04R
$$

NHZ002-005-008-009-011-012-014-190600-
NEW HAMPSHIRE

CITY           SKY/WX    TMP DP  RH WIND       PRES   REMARKS
PORTSMOUTH     CLEAR     42  33  72 NW12      30.07R
ROCHESTER      CLEAR     42  33  70 NW8       30.08R
NASHUA         CLEAR     48  33  56 NW9       30.11R
MANCHESTER     CLEAR     47  31  53 CALM      30.09R
CONCORD        CLEAR     45  32  60 N9        30.11R
LACONIA        CLEAR     45  28  53 NW8       30.09R
PLYMOUTH       FAIR      44  36  75 W6        30.11S
BERLIN         CLOUDY    39  30  70 NW12G21   30.10R
WHITEFIELD     CLOUDY    41  33  73 NW3       30.13R
JAFFREY        CLEAR     44  32  62 CALM      30.10R
KEENE          CLEAR     46  32  57 NE5       30.12R
LEBANON        CLEAR     44  31  60 N8        30.13R
MT WASHINGTON  FOG       19  19 100 NW45G56     N/A  VSB 0   WCI  -3
$$

VTZ005-007-008-190600-
VERMONT

CITY           SKY/WX    TMP DP  RH WIND       PRES   REMARKS
ST JOHNSBURY     N/A     43  34  70 MISG      30.13R
MONTPELIER     MOCLDY    40  30  67 VRB5      30.19R
BURLINGTON     CLOUDY    43  29  57 N12       30.20R
$$

MAZ007-012-024-CTZ003-RIZ002-NYZ038-NYZ072-190600-
SOUTHERN NEW ENGLAND AND NY

CITY           SKY/WX    TMP DP  RH WIND       PRES   REMARKS
BOSTON         CLEAR     45  38  76 N3        30.10R
WORCESTER      CLEAR     48  33  56 N9        30.09R
NANTUCKET      CLEAR     45  41  86 N8        30.06R
PROVIDENCE     CLEAR     47  40  76 NE8       30.09R
HARTFORD       CLEAR     53  28  38 N7        30.10R
ALBANY         CLEAR     47  30  51 NE6       30.15R
NEW YORK CITY  PTCLDY    62  29  28 N9        30.07R
$$

ANZ081-ANZ082-ANZ150-NHZ014-MEZ023>029-190600-
COASTAL MARINE OBSERVATIONS

STATION/POSITION TIME  TEMP    WIND        PRES    WAVE
                       AIR SEA DIR/SP/G            HT/PER
                 (UTC) (F)     (DEG/KT/KT) (MB)    (FT/S)
MOUNT DESERT ROC 0500   39     340/  9/  9 1017.6R
MATINICUS ROCK   0400   38     310/ 11/ 11 1016.7R
WELLS            0400   38 38  320/  1/  2 1017.6R
ISLE OF SHOALS   0400   42     310/  3/  3 1017.8R
CASHES LEDGE BUO 0450   41 40              1017.0R   3/ 7
$$

.............KEY..............
   WCI - WIND CHILL
   TC  - TEMPERATURE IN CELSIUS
   VSB - VISIBILITY IN MILES
   HX  - HEAT INDEX
   FAIR- INDICATES FEW OR NO CLOUDS BELOW 12,000 FT, WITH NO
         SIGNIFICANT WEATHER AND/OR OBSTRUCTIONS TO VISIBILITY.





USA.gov is the U.S. government's official web portal to all federal, state and local government web resources and services.